Snowfall_Accumulation
nan nan nan nan nan nan nan nan nan nan nan nan nan nan nan nan nan 0.0 0.0 0.0 0.3 4.0 0.3 0.0 0.0 1.1 0.6 1.0 3.8 1.1 4.1 2.0 3.3 4.3 3.3 2.8 2.4 1.0 0.6 0.0 0.1 0.3 0.8 1.5 1.1 2.6 5.6 0.0 0.0 0.0 0.0 0.0 0.0 0.0
nan nan nan nan nan nan nan nan nan nan nan nan nan nan nan nan nan nan 0.0 0.0 0.0 0.9 1.1 0.0 0.0 0.0 0.1 0.3 2.4 1.1 2.8 1.2 1.9 2.8 2.8 2.5 2.8 1.9 1.9 1.2 0.0 0.5 0.0 0.1 0.1 0.0 0.0 0.0 0.0 0.0 0.0 0.0 0.0 0.0
nan nan nan nan nan nan nan nan nan nan nan nan nan nan nan nan nan nan 0.0 0.0 0.1 2.8 2.1 1.1 1.0 0.0 0.0 0.0 0.1 6.5 1.0 2.9 2.3 2.0 4.4 2.7 3.7 1.6 2.3 0.9 0.2 0.0 0.0 0.2 0.0 0.0 0.0 0.0 0.0 0.0 0.0 0.0 0.0 0.0
nan nan nan nan nan nan nan nan nan nan nan nan nan nan nan nan nan nan 0.0 0.0 0.1 2.9 10.5 1.9 0.0 0.4 0.0 0.0 0.1 0.2 0.5 0.7 2.7 3.2 6.2 6.6 5.0 1.9 2.1 1.9 0.9 0.1 0.0 0.1 0.2 0.1 0.0 0.1 0.1 0.0 0.0 0.0 0.0 0.0
nan nan nan nan nan nan nan nan nan nan nan nan nan nan nan nan nan nan 0.0 0.0 0.0 3.3 4.4 1.2 0.2 0.2 0.0 0.0 0.1 0.3 1.4 3.3 6.8 10.8 15.0 11.7 2.9 4.2 1.7 1.8 1.8 0.5 0.2 0.4 0.3 0.0 0.1 0.2 0.1 0.0 0.0 0.0 0.0 0.0
nan nan nan nan nan nan nan nan nan nan nan nan nan nan nan nan nan 0.0 1.7 0.6 0.0 1.3 7.3 4.0 0.9 1.2 0.2 0.1 1.9 2.6 3.0 5.5 5.8 6.8 9.6 7.6 3.2 3.2 8.1 4.1 1.4 0.6 0.4 0.0 0.0 0.1 0.1 0.1 0.1 0.0 0.0 0.0 0.0 0.0
nan nan nan nan nan nan nan nan nan nan nan nan nan nan nan nan 0.0 0.8 2.0 0.3 nan 0.8 4.8 10.4 2.9 1.6 1.7 1.7 2.2 3.9 3.1 5.2 5.0 6.0 6.1 4.5 4.8 3.5 4.2 4.6 2.4 1.9 1.2 0.5 0.1 0.1 0.7 0.2 0.1 0.0 0.0 0.0 0.0 0.0
nan nan nan nan nan nan nan nan nan nan nan nan nan nan nan nan nan 0.7 0.0 nan nan 2.8 2.2 13.0 5.3 2.4 0.7 2.9 4.4 2.5 4.1 3.4 3.8 5.1 4.9 5.8 4.4 4.3 11.1 5.7 4.0 2.6 1.8 1.1 0.6 0.2 0.2 0.2 0.2 0.2 0.1 0.1 0.2 0.2
nan nan nan nan nan nan nan nan nan nan nan nan nan nan 0.0 0.2 1.5 1.0 nan nan 0.1 3.0 8.7 6.2 4.4 8.0 0.8 2.1 3.0 3.6 2.5 6.9 3.4 6.9 5.8 2.2 5.1 11.2 7.2 4.0 2.9 2.6 1.9 2.0 0.7 0.5 0.8 0.5 0.4 0.4 0.3 0.3 0.2 0.2
nan nan nan nan nan nan nan nan nan nan nan nan 0.0 3.4 9.2 2.6 nan nan 1.3 4.3 4.7 3.4 3.4 6.3 0.6 4.1 1.6 1.5 2.3 2.9 2.7 5.6 11.9 7.1 2.3 5.0 10.8 5.7 5.3 4.6 3.9 3.5 3.5 2.0 1.6 2.6 0.7 0.8 0.7 0.6 0.6 0.5 0.4 0.3
nan nan nan nan nan nan nan nan nan nan nan 0.0 3.4 5.4 2.0 nan 1.4 4.0 15.3 16.5 7.2 12.9 1.7 2.6 2.6 3.0 1.3 4.4 4.0 1.9 7.9 5.9 14.2 4.2 3.0 8.3 8.3 8.6 3.9 4.1 3.3 2.7 2.2 2.5 1.4 1.4 0.8 0.6 0.7 0.6 0.5 0.4 0.2 0.1
nan nan nan nan nan nan nan nan nan 0.1 2.3 0.5 0.7 0.6 0.9 4.1 11.9 16.6 18.2 9.3 6.2 4.0 1.5 3.0 3.4 2.6 1.6 1.0 5.8 7.6 11.4 12.0 16.7 3.7 8.3 10.1 8.1 4.0 2.4 2.2 1.8 0.6 0.3 0.3 0.1 0.1 0.2 0.1 0.1 0.2 0.1 0.1 0.0 0.0
nan nan nan nan nan nan nan nan nan nan nan 0.6 5.1 15.7 17.7 19.1 43.7 20.3 17.8 8.9 6.6 2.3 2.8 3.8 5.0 1.6 0.7 0.5 6.2 8.4 13.8 11.5 1.6 12.1 5.5 6.6 4.5 2.6 1.8 0.5 0.3 0.2 0.1 0.0 0.0 0.1 0.0 0.0 0.0 0.0 0.0 0.0 0.0 0.0
nan nan nan nan nan nan nan nan nan 0.2 0.7 12.6 25.2 54.9 20.5 20.7 6.7 5.9 4.3 4.5 4.0 4.3 2.8 1.5 1.4 3.0 1.0 6.0 2.9 12.7 3.0 3.9 13.2 11.0 7.5 4.1 2.0 0.3 0.0 0.0 0.0 0.0 0.0 0.0 0.0 0.0 0.0 0.0 0.0 0.0 0.0 0.0 0.0 0.0
nan nan nan nan nan nan nan nan nan 0.3 1.9 29.8 19.5 36.9 20.5 6.2 7.5 5.6 4.6 3.7 1.7 0.9 0.8 1.3 1.6 1.5 4.6 8.9 4.2 4.2 11.3 11.1 3.2 4.6 3.2 1.8 0.1 0.0 0.0 0.0 0.1 0.0 0.0 0.0 0.0 0.0 0.0 0.0 0.0 0.0 0.0 0.0 0.0 0.0
nan nan 0.0 nan nan nan nan nan 0.1 1.6 21.8 28.4 21.7 19.4 2.7 5.8 8.1 5.3 4.1 2.3 0.6 0.3 0.5 1.6 7.9 13.0 9.7 7.5 10.0 10.7 14.1 8.6 5.0 3.0 1.5 0.2 0.0 0.0 0.0 0.0 0.0 0.0 0.0 0.0 0.0 0.0 0.0 0.0 0.0 0.0 0.0 0.0 0.0 0.0
nan 0.1 nan nan nan nan nan 1.6 9.5 28.2 32.5 33.5 27.4 3.5 4.1 4.8 5.9 2.4 0.3 0.0 0.0 1.6 4.5 5.3 15.9 9.9 4.1 11.9 10.0 4.4 9.3 4.0 1.6 1.1 0.3 0.0 0.0 0.0 0.0 0.0 0.0 0.0 0.0 0.0 0.0 0.0 0.0 0.0 0.0 0.0 0.0 0.0 0.0 0.1
0.0 0.0 nan nan nan nan 0.8 5.8 29.5 37.9 42.4 16.2 11.4 6.3 2.3 2.1 1.9 1.2 0.0 0.0 0.7 1.2 2.4 7.5 4.4 13.1 14.3 12.0 5.3 5.0 2.9 2.0 0.6 0.2 0.1 0.0 0.0 0.0 0.0 0.0 0.0 0.0 0.1 0.1 0.1 0.1 0.1 0.2 0.1 0.2 0.2 0.6 0.5 0.4
0.0 0.0 nan nan 0.0 5.3 31.7 37.7 13.6 33.8 23.8 6.3 4.1 2.2 1.2 0.9 0.6 0.7 0.3 0.0 0.1 0.2 4.1 8.3 15.0 17.8 4.9 5.0 4.3 3.2 1.4 0.4 0.0 0.0 0.0 0.0 0.0 0.0 0.0 0.1 0.1 0.1 0.2 0.2 0.1 0.2 0.1 0.0 0.1 0.9 1.0 0.5 0.7 0.6
nan nan nan nan nan 21.2 42.6 37.5 11.0 13.5 16.2 9.1 4.9 6.7 3.5 2.1 0.4 0.5 0.2 0.3 0.6 4.2 11.8 19.8 6.8 2.8 2.1 2.2 0.7 0.3 0.1 0.0 0.0 0.0 0.0 0.0 0.0 0.1 0.2 0.3 0.0 0.1 0.0 0.1 0.2 nan 0.4 0.3 0.4 0.2 0.2 0.6 1.4 1.0
nan nan nan 0.4 10.8 13.9 23.6 24.8 19.4 16.3 11.2 9.9 10.1 6.0 9.3 4.7 6.5 7.4 6.9 0.9 8.0 15.3 13.4 5.4 2.9 1.6 0.5 0.2 0.0 0.0 0.0 0.0 0.0 0.0 0.0 0.2 0.0 0.2 0.4 0.6 0.8 0.0 0.1 0.1 0.6 0.7 0.3 0.3 0.4 0.5 6.2 0.9 0.3 0.6
0.2 nan 4.6 3.2 28.2 30.8 23.7 13.4 16.0 10.7 12.9 12.0 12.6 9.0 17.9 21.1 18.5 16.5 4.8 17.4 17.3 6.3 3.9 2.5 1.8 0.4 0.2 0.1 0.1 0.0 0.0 0.0 0.0 0.0 nan 0.0 0.4 0.6 0.7 0.9 1.6 4.6 3.8 4.1 2.5 1.8 0.9 0.6 1.4 1.8 1.1 1.2 0.9 0.9
nan 1.3 11.6 15.4 29.6 27.7 36.5 9.8 16.0 17.4 19.1 22.7 18.5 18.6 22.0 22.1 15.5 6.1 19.9 9.7 6.5 3.6 2.6 2.0 1.0 0.2 0.3 0.1 0.1 0.0 0.0 0.1 0.1 0.1 0.0 0.0 0.0 0.5 1.1 0.7 0.9 7.0 7.1 2.0 0.9 2.5 4.0 nan 1.0 2.1 1.7 1.3 1.6 2.2
nan 23.1 33.8 29.2 23.2 26.8 9.5 18.7 7.2 11.0 14.4 15.9 20.2 19.0 18.0 15.3 10.5 20.8 17.0 9.7 5.7 3.6 2.5 1.2 0.9 1.0 1.1 2.0 1.1 0.5 0.3 0.1 0.2 0.4 0.3 0.7 1.6 0.6 0.1 0.5 0.6 0.7 1.6 1.7 2.8 3.5 3.0 3.5 nan 3.4 3.8 5.1 4.8 5.3
43.0 56.7 25.9 43.2 16.1 17.6 11.3 10.4 16.0 10.2 12.8 13.2 14.3 16.5 15.6 12.0 17.5 18.5 11.4 9.9 6.3 4.7 2.5 1.2 1.2 1.3 3.9 3.7 0.5 0.6 0.2 0.5 1.6 1.8 0.7 0.7 2.3 2.0 2.4 0.9 0.1 0.7 2.3 8.1 5.4 4.6 4.6 5.3 4.8 5.6 5.1 5.9 6.5 7.0
50.5 21.8 35.4 10.3 14.7 8.1 6.7 9.3 8.9 10.6 8.7 12.9 12.3 10.3 13.7 12.4 15.8 17.7 7.8 9.0 8.0 5.6 6.4 6.2 4.7 3.1 1.4 0.7 1.4 1.5 0.9 0.7 1.4 2.6 1.3 1.4 2.1 6.4 7.2 3.8 3.7 2.3 1.4 5.7 12.9 10.4 7.5 6.7 8.2 7.7 7.1 5.3 nan 9.2
36.2 18.7 7.4 0.9 2.0 1.7 3.0 3.1 2.7 5.8 11.3 10.7 9.1 8.4 11.2 18.9 13.3 4.5 3.0 2.9 5.4 5.0 4.6 3.1 2.3 2.2 2.1 1.7 0.9 1.4 1.4 2.3 3.2 3.4 1.5 1.4 1.5 2.2 6.8 13.3 10.7 1.7 3.0 7.6 9.1 9.3 10.9 8.2 8.6 8.3 8.3 6.9 6.3 6.8
4.2 3.9 5.8 8.0 3.8 4.2 3.8 3.5 5.5 7.6 6.5 3.0 4.3 11.2 11.5 7.9 6.0 3.2 3.5 3.5 6.4 7.4 8.9 6.8 5.0 5.1 6.8 6.2 5.9 5.8 7.5 6.9 6.9 5.0 3.8 2.6 3.3 5.9 6.8 6.3 6.9 nan 9.5 9.1 13.0 10.9 9.7 9.3 9.2 8.4 8.9 9.1 7.6 6.0
7.7 4.4 3.4 9.7 8.6 9.7 10.8 8.6 6.1 2.9 0.5 2.4 7.1 5.7 4.5 1.9 5.6 5.0 2.8 4.7 7.3 9.3 8.8 8.6 10.5 10.1 10.5 8.9 8.2 8.3 9.9 9.2 10.5 7.0 4.0 4.1 5.0 8.1 9.4 9.5 10.9 10.0 9.5 9.4 nan nan 11.4 11.8 11.1 9.5 7.5 7.6 5.4 7.3
6.8 8.1 7.5 9.3 8.4 7.9 8.5 4.7 8.2 7.3 2.9 3.6 4.0 4.8 3.4 4.7 5.1 3.8 5.3 6.6 8.0 11.4 13.6 16.2 15.7 17.7 15.4 12.4 13.0 11.1 12.4 12.3 10.5 11.0 11.9 8.9 8.0 6.7 9.9 12.7 11.3 9.8 9.9 10.4 9.7 8.4 nan 7.2 nan 8.0 10.3 10.4 9.2 10.2
6.6 10.7 9.7 9.4 10.0 12.0 10.2 6.6 9.4 4.8 8.0 10.7 9.4 9.9 8.2 8.4 5.0 4.2 4.7 5.7 8.1 13.3 15.4 16.9 17.1 18.1 14.6 12.5 14.4 13.2 11.6 10.7 11.4 11.1 11.9 12.4 11.8 12.2 13.3 14.3 12.9 12.4 11.0 12.1 11.8 10.0 10.4 10.2 10.0 10.7 10.2 10.8 9.6 9.2
8.7 12.5 11.6 9.7 14.0 15.4 11.9 14.5 15.3 13.4 13.2 13.1 12.1 12.7 10.4 9.5 6.6 5.4 5.2 11.0 11.5 11.5 nan 14.5 12.1 11.0 11.6 11.4 10.0 9.9 nan 9.6 9.7 9.8 11.0 11.5 10.3 9.4 12.0 12.0 11.8 12.8 13.1 12.8 13.1 12.8 13.2 14.2 13.4 11.7 11.1 11.9 11.1 9.5
17.0 15.2 16.8 12.9 19.4 16.7 14.9 15.1 9.0 17.8 13.6 12.9 9.8 9.5 10.7 6.5 5.7 5.3 4.5 9.1 9.4 9.3 10.0 10.5 10.6 11.6 9.8 9.6 9.1 8.8 nan 10.4 11.4 nan nan nan nan nan 10.1 10.2 10.6 10.8 10.6 11.8 12.7 12.5 13.2 13.9 14.3 10.7 11.3 12.1 12.9 11.7
Water_Equivalent
nan nan nan nan nan nan nan nan nan nan nan nan nan nan nan nan nan 0.00 0.00 0.00 0.05 0.66 0.04 0.00 0.01 0.19 0.12 0.17 0.52 0.23 0.67 0.38 0.46 0.55 0.51 0.41 0.36 0.14 0.07 0.00 0.03 0.05 0.15 0.26 0.19 0.42 0.74 0.00 0.00 0.01 0.00 0.00 0.00 0.00
nan nan nan nan nan nan nan nan nan nan nan nan nan nan nan nan nan nan 0.00 0.00 0.00 0.17 0.25 0.00 0.00 0.00 0.03 0.07 0.41 0.18 0.55 0.25 0.31 0.45 0.56 0.40 0.39 0.33 0.22 0.17 0.00 0.08 0.01 0.01 0.02 0.01 0.00 0.00 0.00 0.00 0.00 0.00 0.00 0.00
nan nan nan nan nan nan nan nan nan nan nan nan nan nan nan nan nan nan 0.00 0.00 0.02 0.66 0.44 0.21 0.22 0.00 0.00 0.00 0.02 0.90 0.19 0.69 0.41 0.44 0.73 0.45 0.56 0.40 0.31 0.13 0.02 0.00 0.00 0.03 0.01 0.01 0.00 0.00 0.00 0.00 0.00 0.00 0.00 0.00
nan nan nan nan nan nan nan nan nan nan nan nan nan nan nan nan nan nan 0.00 0.00 0.02 0.64 1.45 0.27 0.00 0.09 0.00 0.00 0.03 0.05 0.10 0.13 0.50 0.53 1.05 1.26 0.84 0.28 0.32 0.25 0.13 0.02 0.01 0.02 0.02 0.01 0.01 0.01 0.02 0.01 0.00 0.00 0.00 0.00
nan nan nan nan nan nan nan nan nan nan nan nan nan nan nan nan nan nan 0.00 0.00 0.00 0.58 0.66 0.17 0.04 0.04 0.00 0.00 0.03 0.07 0.28 0.54 1.17 1.87 2.39 1.67 0.44 0.61 0.24 0.25 0.25 0.07 0.03 0.05 0.04 0.00 0.02 0.03 0.01 0.01 0.00 0.00 0.00 0.00
nan nan nan nan nan nan nan nan nan nan nan nan nan nan nan nan nan 0.01 0.34 0.15 0.01 0.34 1.14 0.71 0.20 0.21 0.06 0.02 0.36 0.51 0.61 1.01 0.98 1.06 1.39 1.10 0.49 0.50 1.10 0.51 0.17 0.10 0.08 0.01 0.00 0.02 0.02 0.01 0.02 0.01 0.00 0.00 0.00 0.00
nan nan nan nan nan nan nan nan nan nan nan nan nan nan nan nan 0.00 0.22 0.38 0.07 nan 0.19 0.77 2.33 0.51 0.32 0.35 0.35 0.45 0.72 0.59 0.86 0.76 0.89 0.91 0.58 0.59 0.56 0.67 0.55 0.29 0.28 0.20 0.09 0.03 0.02 0.11 0.04 0.02 0.01 0.00 0.00 0.00 0.00
nan nan nan nan nan nan nan nan nan nan nan nan nan nan nan nan nan 0.15 0.00 nan nan 0.55 0.39 2.53 1.03 0.36 0.12 0.41 0.56 0.47 0.60 0.53 0.60 0.71 0.74 0.76 0.57 0.59 1.26 0.63 0.50 0.35 0.26 0.16 0.10 0.05 0.03 0.03 0.04 0.04 0.02 0.02 0.03 0.03
nan nan nan nan nan nan nan nan nan nan nan nan nan nan 0.00 0.06 0.32 0.23 nan nan 0.03 0.51 1.59 1.25 0.92 1.91 0.13 0.28 0.42 0.51 0.39 0.91 0.44 0.91 0.69 0.30 0.59 1.31 0.72 0.45 0.36 0.34 0.23 0.25 0.10 0.08 0.13 0.07 0.07 0.06 0.04 0.04 0.04 0.03
nan nan nan nan nan nan nan nan nan nan nan nan 0.01 0.83 2.21 0.53 nan nan 0.27 0.72 1.00 0.68 0.75 1.08 0.08 0.60 0.19 0.19 0.31 0.36 0.40 0.86 2.14 0.70 0.29 0.61 1.00 0.63 0.64 0.58 0.52 0.46 0.47 0.26 0.19 0.29 0.10 0.11 0.09 0.09 0.08 0.08 0.05 0.04
nan nan nan nan nan nan nan nan nan nan nan 0.01 0.78 1.24 0.50 nan 0.28 0.70 3.13 2.87 1.38 2.03 0.31 0.33 0.29 0.35 0.16 0.75 0.57 0.27 1.40 1.04 2.23 0.60 0.40 1.23 0.86 0.89 0.46 0.51 0.44 0.36 0.30 0.34 0.20 0.20 0.12 0.09 0.10 0.08 0.07 0.05 0.03 0.02
nan nan nan nan nan nan nan nan nan 0.04 0.78 0.15 0.15 0.13 0.19 0.95 2.35 2.78 2.82 1.75 1.02 0.71 0.22 0.37 0.43 0.36 0.23 0.14 0.86 1.17 1.73 1.88 2.09 0.51 1.20 1.22 0.86 0.45 0.28 0.25 0.21 0.07 0.04 0.04 0.02 0.02 0.02 0.02 0.02 0.02 0.01 0.01 0.00 0.00
nan nan nan nan nan nan nan nan nan nan nan 0.17 1.23 3.93 3.42 3.52 7.17 2.96 2.26 1.75 1.50 0.40 0.51 0.65 0.92 0.23 0.16 0.15 1.12 1.28 2.03 1.71 0.27 1.94 0.58 0.68 0.45 0.30 0.22 0.06 0.03 0.02 0.01 0.01 0.00 0.01 0.00 0.00 0.00 0.00 0.00 0.00 0.00 0.00
nan nan nan nan nan nan nan nan nan 0.08 0.25 2.85 5.49 9.89 3.31 3.19 1.04 0.87 0.53 0.64 0.52 0.66 0.40 0.23 0.34 0.56 0.19 1.04 0.51 2.06 0.41 0.52 1.79 1.36 0.74 0.39 0.20 0.03 0.00 0.00 0.00 0.00 0.00 0.00 0.00 0.00 0.00 0.00 0.00 0.00 0.00 0.00 0.00 0.00
nan nan nan nan nan nan nan nan nan 0.09 0.44 6.13 4.14 5.72 3.13 0.85 1.12 0.90 1.05 0.74 0.36 0.16 0.17 0.26 0.38 0.22 1.10 1.62 0.65 0.79 1.49 1.57 0.43 0.55 0.34 0.26 0.02 0.01 0.00 0.00 0.02 0.01 0.00 0.00 0.00 0.00 0.00 0.00 0.00 0.00 0.00 0.00 0.00 0.00
nan nan 0.00 nan nan nan nan nan 0.03 0.45 5.68 6.41 4.40 3.27 0.42 1.13 1.50 1.06 1.17 0.70 0.16 0.08 0.15 0.37 1.56 2.07 1.65 1.22 1.56 1.52 1.90 1.01 0.65 0.52 0.22 0.07 0.01 0.00 0.01 0.01 0.01 0.00 0.00 0.00 0.00 0.00 0.00 0.00 0.00 0.00 0.00 0.00 0.00 0.00
nan 0.02 nan nan nan nan nan 0.58 3.02 8.02 7.85 7.34 5.05 0.54 0.63 0.92 0.96 0.35 0.04 0.01 0.01 0.31 1.07 1.14 2.22 1.48 0.93 1.65 1.25 0.75 1.40 0.54 0.31 0.22 0.08 0.01 0.01 0.00 0.00 0.01 0.01 0.00 0.01 0.02 0.01 0.00 0.00 0.00 0.00 0.00 0.00 0.00 0.01 0.02
0.00 0.01 nan nan nan nan 0.31 1.93 7.54 8.80 7.81 3.25 1.70 1.01 0.31 0.28 0.26 0.13 0.00 0.00 0.16 0.34 0.58 1.84 0.89 2.05 1.79 1.38 0.65 0.56 0.38 0.36 0.16 0.07 0.05 0.01 0.00 0.00 0.00 0.00 0.00 0.01 0.02 0.02 0.02 0.03 0.03 0.04 0.03 0.03 0.04 0.10 0.08 0.07
0.00 0.00 nan nan 0.01 1.79 7.79 8.69 4.23 5.67 4.18 1.21 0.74 0.50 0.28 0.14 0.07 0.08 0.03 0.00 0.06 0.07 1.05 1.66 2.40 2.45 0.54 0.55 0.58 0.57 0.33 0.13 0.01 0.00 0.00 0.00 0.00 0.00 0.00 0.03 0.02 0.02 0.04 0.04 0.02 0.05 0.04 0.01 0.02 0.14 0.14 0.09 0.10 0.11
nan nan nan nan nan 5.11 7.72 6.69 2.69 2.28 2.42 1.41 1.04 1.20 0.65 0.37 0.07 0.07 0.03 0.08 0.22 1.31 2.37 3.05 0.77 0.19 0.14 0.17 0.11 0.07 0.05 0.00 0.00 0.00 0.00 0.00 0.00 0.03 0.05 0.07 0.00 0.02 0.00 0.01 0.06 nan 0.08 0.05 0.06 0.03 0.03 0.07 0.17 0.13
nan nan nan 0.09 3.45 3.77 5.08 4.01 3.08 2.58 1.83 1.49 1.80 1.13 1.32 1.16 1.26 1.59 1.61 0.31 1.82 2.73 1.85 0.48 0.22 0.11 0.05 0.05 0.01 0.00 0.00 0.00 0.00 0.00 0.00 0.06 0.00 0.07 0.10 0.16 0.19 0.00 0.01 0.02 0.08 0.09 0.04 0.04 0.04 0.10 1.16 0.12 0.04 0.07
0.07 nan 1.40 0.98 6.18 5.91 3.74 2.22 2.39 1.60 1.78 1.81 1.94 1.62 2.80 3.35 2.95 2.63 1.15 3.11 2.60 0.90 0.35 0.22 0.21 0.08 0.06 0.02 0.02 0.01 0.01 0.00 0.00 0.00 nan 0.00 0.08 0.12 0.13 0.18 0.26 0.72 0.64 0.74 0.43 0.26 0.14 0.10 0.19 0.25 0.17 0.19 0.14 0.13
nan 0.39 2.75 4.17 4.82 4.30 5.51 1.64 2.06 2.31 2.40 3.14 2.70 2.51 3.14 3.25 2.21 1.30 2.85 1.54 0.91 0.38 0.31 0.27 0.14 0.03 0.07 0.01 0.01 0.01 0.01 0.01 0.03 0.03 0.01 0.01 0.01 0.12 0.24 0.14 0.19 1.07 1.03 0.32 0.18 0.37 0.56 nan 0.17 0.29 0.26 0.20 0.22 0.31
nan 4.77 5.65 4.30 3.29 3.58 1.27 2.40 0.91 1.34 1.79 1.96 2.58 2.26 2.26 2.01 1.63 2.85 2.06 1.06 0.65 0.45 0.33 0.16 0.20 0.18 0.18 0.26 0.18 0.09 0.07 0.04 0.05 0.08 0.07 0.15 0.27 0.09 0.02 0.09 0.09 0.12 0.24 0.27 0.42 0.51 0.44 0.51 nan 0.51 0.52 0.63 0.61 0.66
7.44 9.06 3.87 6.16 2.10 2.07 1.25 1.08 1.90 1.12 1.44 1.49 1.60 1.89 1.85 1.38 2.19 2.30 1.20 1.05 0.71 0.57 0.40 0.25 0.26 0.29 0.73 0.71 0.11 0.13 0.04 0.11 0.28 0.29 0.14 0.15 0.35 0.31 0.40 0.18 0.03 0.11 0.34 1.26 0.70 0.59 0.63 0.73 0.68 0.74 0.66 0.72 0.76 0.79
7.57 2.93 4.94 1.24 1.81 0.91 0.73 1.00 0.93 1.15 0.94 1.40 1.32 1.05 1.50 1.41 1.86 2.13 0.73 0.98 0.95 0.81 1.01 1.00 0.84 0.52 0.23 0.16 0.26 0.28 0.19 0.15 0.24 0.40 0.25 0.26 0.33 0.95 1.14 0.54 0.53 0.36 0.24 0.79 1.73 1.34 0.92 0.87 1.04 0.96 0.90 0.73 nan 1.28
4.87 2.31 0.86 0.11 0.20 0.15 0.30 0.32 0.29 0.63 1.23 1.14 0.97 0.86 1.26 2.16 1.44 0.38 0.29 0.32 0.53 0.64 0.58 0.51 0.44 0.42 0.38 0.31 0.20 0.27 0.28 0.47 0.53 0.54 0.26 0.28 0.29 0.35 1.02 1.76 1.31 0.27 0.45 1.18 1.35 1.26 1.36 1.01 1.08 1.08 1.10 1.05 0.96 0.94
0.47 0.42 0.60 0.91 0.38 0.42 0.39 0.35 0.57 0.82 0.69 0.30 0.45 1.19 1.26 0.81 0.62 0.35 0.36 0.39 0.71 0.82 0.94 0.71 0.64 0.70 0.86 0.81 0.81 0.77 0.95 0.87 0.83 0.68 0.56 0.38 0.48 0.92 1.03 0.99 1.07 nan 1.45 1.34 1.73 1.52 1.39 1.31 1.32 1.20 1.17 1.23 1.09 0.90
0.83 0.48 0.36 1.05 0.88 1.02 1.18 0.94 0.65 0.29 0.04 0.24 0.79 0.60 0.43 0.17 0.64 0.56 0.33 0.55 0.89 0.99 0.92 0.90 1.15 1.33 1.29 1.05 0.98 1.06 1.21 1.17 1.23 0.75 0.41 0.45 0.56 0.95 1.31 1.37 1.59 1.50 1.44 1.41 nan nan 1.58 1.69 1.62 1.42 1.15 1.12 0.90 1.22
0.72 0.92 0.78 0.96 0.89 0.81 0.89 0.44 0.90 0.77 0.28 0.38 0.40 0.45 0.30 0.44 0.57 0.49 0.58 0.66 0.79 1.21 1.54 1.93 1.90 2.24 1.86 1.43 1.49 1.19 1.41 1.54 1.34 1.29 1.31 0.99 0.97 0.89 1.33 1.60 1.51 1.42 1.49 1.51 1.38 1.37 nan 1.30 nan 1.34 1.41 1.24 1.20 1.19
0.69 1.20 0.96 0.92 1.01 1.31 1.01 0.56 0.91 0.40 0.75 1.13 0.97 1.07 0.84 0.89 0.47 0.40 0.41 0.54 0.81 1.47 1.77 2.03 2.10 2.26 1.68 1.39 1.67 1.50 1.27 1.18 1.32 1.28 1.33 1.36 1.34 1.44 1.61 1.75 1.70 1.67 1.56 1.54 1.46 1.32 1.39 1.27 1.22 1.31 1.09 1.16 1.05 1.00
0.92 1.30 1.20 0.93 1.52 1.73 1.18 1.53 1.63 1.42 1.39 1.41 1.33 1.38 1.09 0.99 0.62 0.50 0.43 1.11 1.19 1.13 nan 1.56 1.23 1.14 1.28 1.24 1.07 1.08 nan 1.02 1.05 1.06 1.17 1.24 1.17 1.13 1.41 1.50 1.64 1.55 1.55 1.52 1.49 1.42 1.45 1.59 1.44 1.34 1.16 1.36 1.25 0.99
1.90 1.63 1.83 1.26 2.21 1.80 1.60 1.75 0.86 2.19 1.49 1.38 0.99 0.96 1.12 0.62 0.50 0.48 0.37 0.84 0.85 0.82 0.93 1.06 1.08 1.23 0.99 0.96 0.90 0.89 nan 1.11 1.24 nan nan nan nan nan 1.27 1.15 1.21 1.17 1.11 1.27 1.39 1.34 1.38 1.47 1.55 1.20 1.25 1.35 1.36 1.22
SL_Ratio
nan nan nan nan nan nan nan nan nan nan nan nan nan nan nan nan nan nan nan nan 5.6 6.1 6.8 nan 4.4 5.7 5.3 6.0 7.4 4.9 6.1 5.4 7.2 7.8 6.4 6.8 6.6 7.2 8.1 3.3 5.4 5.5 5.5 5.9 6.0 6.3 7.6 nan nan 5.6 6.7 nan nan nan
nan nan nan nan nan nan nan nan nan nan nan nan nan nan nan nan nan nan 6.7 nan nan 5.2 4.5 nan nan nan 4.0 4.5 5.8 6.3 5.1 4.7 6.0 6.3 5.0 6.2 7.0 5.8 8.7 6.9 0.0 6.3 5.3 5.3 5.2 5.0 nan nan nan nan nan nan nan nan
nan nan nan nan nan nan nan nan nan nan nan nan nan nan nan nan nan nan 10.0 nan 3.8 4.3 4.7 5.1 4.4 nan nan 3.3 3.3 7.2 5.3 4.2 5.6 4.5 6.1 6.1 6.6 4.1 7.3 6.9 8.1 5.0 5.7 6.3 6.1 5.9 nan nan 10.0 nan nan nan nan nan
nan nan nan nan nan nan nan nan nan nan nan nan nan nan nan nan nan nan 0.0 nan 3.8 4.5 7.2 7.2 nan 4.5 nan nan 4.2 4.4 5.0 5.3 5.3 6.1 6.0 5.2 6.0 6.8 6.5 7.8 7.5 6.2 4.5 6.0 7.1 6.3 4.8 4.9 4.4 4.3 10.0 nan nan nan
nan nan nan nan nan nan nan nan nan nan nan nan nan nan nan nan nan nan nan nan nan 5.6 6.7 6.9 4.3 4.1 nan nan 4.5 4.6 5.1 6.0 5.8 5.7 6.2 7.0 6.6 6.9 7.2 7.1 7.3 7.2 6.5 6.6 7.1 5.0 5.0 5.3 4.3 4.4 5.0 nan nan nan
nan nan nan nan nan nan nan nan nan nan nan nan nan nan nan nan nan 3.5 5.0 4.1 3.8 4.0 6.4 5.6 4.6 5.7 3.9 4.0 5.4 5.1 4.9 5.5 5.9 6.4 6.9 6.9 6.5 6.4 7.4 8.1 7.9 5.9 5.3 4.3 4.7 4.8 4.6 4.6 4.4 4.3 nan nan nan nan
nan nan nan nan nan nan nan nan nan nan nan nan nan nan nan nan nan 3.7 5.2 4.5 nan 4.1 6.3 4.5 5.8 5.1 5.0 5.0 4.9 5.4 5.3 6.0 6.6 6.8 6.7 7.6 8.2 6.3 6.3 8.4 8.2 6.7 6.2 5.7 4.8 5.1 7.0 5.3 5.8 4.6 4.3 4.4 4.3 4.5
nan nan nan nan nan nan nan nan nan nan nan nan nan nan nan nan nan 4.6 nan nan nan 5.1 5.7 5.2 5.1 6.7 5.8 7.2 7.9 5.4 6.7 6.4 6.3 7.2 6.7 7.6 7.8 7.3 8.8 9.0 7.9 7.4 6.9 6.7 6.5 5.2 4.9 5.0 5.0 5.3 5.1 5.3 6.3 6.4
nan nan nan nan nan nan nan nan nan nan nan nan nan nan 3.3 4.0 4.8 4.6 nan nan 4.1 5.8 5.5 4.9 4.8 4.2 6.2 7.4 7.2 7.1 6.4 7.6 7.8 7.5 8.4 7.4 8.7 8.5 10.0 8.9 8.2 7.6 8.3 7.8 6.6 6.0 6.2 6.5 6.4 6.3 6.2 6.5 6.9 6.9
nan nan nan nan nan nan nan nan nan nan nan nan 3.5 4.1 4.2 4.8 nan nan 4.9 5.9 4.7 5.1 4.5 5.9 8.0 6.8 8.2 7.9 7.4 8.0 6.6 6.5 5.5 10.2 8.1 8.1 10.8 9.1 8.4 7.9 7.6 7.6 7.4 7.4 8.6 9.0 7.3 7.4 7.2 7.1 7.0 6.7 6.9 7.0
nan nan nan nan nan nan nan nan nan nan nan 3.6 4.3 4.3 4.1 nan 5.1 5.8 4.9 5.7 5.2 6.3 5.4 8.0 8.8 8.5 8.0 5.9 7.1 7.0 5.6 5.7 6.4 6.9 7.4 6.8 9.6 9.6 8.4 8.0 7.5 7.4 7.3 7.4 7.2 7.0 6.7 7.0 7.2 7.5 7.5 7.2 7.1 7.1
nan nan nan nan nan nan nan nan nan 2.5 2.9 3.6 4.7 4.3 4.9 4.3 5.1 6.0 6.5 5.3 6.0 5.6 7.0 8.2 7.8 7.2 7.0 7.3 6.8 6.5 6.6 6.4 8.0 7.3 6.9 8.3 9.4 8.8 8.7 8.9 8.4 7.6 7.4 7.4 6.8 7.3 6.9 7.1 7.1 7.5 7.8 7.6 7.5 6.7
nan nan nan nan nan nan nan nan nan nan nan 3.5 4.2 4.0 5.2 5.4 6.1 6.9 7.9 5.1 4.4 5.8 5.5 5.9 5.4 6.7 4.6 3.6 5.5 6.5 6.8 6.7 5.9 6.2 9.5 9.7 10.1 8.9 8.1 7.8 8.6 7.5 7.3 7.1 7.9 7.3 8.0 8.0 5.0 nan nan nan nan 2.5
nan nan nan nan nan nan nan nan nan 2.5 2.9 4.4 4.6 5.5 6.2 6.5 6.5 6.8 8.2 7.0 7.8 6.6 6.9 6.2 4.0 5.3 5.3 5.8 5.8 6.1 7.3 7.4 7.4 8.1 10.3 10.4 10.1 9.4 9.0 7.5 3.3 3.8 nan nan nan nan nan nan nan 0.0 nan nan nan nan
nan nan nan nan nan nan nan nan nan 3.1 4.4 4.9 4.7 6.5 6.6 7.3 6.7 6.2 4.4 5.1 4.6 5.7 5.1 4.8 4.1 6.7 4.1 5.5 6.4 5.3 7.6 7.1 7.4 8.3 9.4 6.9 6.5 3.3 3.3 2.0 2.7 2.5 3.3 3.3 nan nan nan 3.3 2.7 1.7 nan nan nan nan
nan nan nan nan nan nan nan nan 2.6 3.5 3.8 4.4 4.9 5.9 6.6 5.2 5.4 5.0 3.5 3.2 3.9 4.1 3.7 4.4 5.0 6.3 5.9 6.1 6.4 7.0 7.4 8.5 7.7 5.7 6.6 3.4 4.1 4.0 3.1 2.6 2.3 nan 0.0 2.0 4.0 0.0 nan nan nan nan nan nan nan 10.0
nan 2.8 nan nan nan nan nan 2.8 3.2 3.5 4.1 4.6 5.4 6.4 6.5 5.2 6.2 6.8 8.0 9.4 5.4 5.1 4.2 4.6 7.2 6.7 4.4 7.2 8.0 5.9 6.6 7.5 5.1 5.1 3.4 3.2 3.3 3.3 3.8 3.1 2.8 3.3 2.5 2.6 2.8 2.9 nan nan nan nan nan nan 7.5 6.3
nan 4.1 nan nan nan nan 2.5 3.0 3.9 4.3 5.4 5.0 6.7 6.3 7.4 7.6 7.4 8.9 8.7 7.8 4.0 3.5 4.1 4.1 5.0 6.4 8.0 8.7 8.2 9.0 7.8 5.5 3.5 3.0 2.9 2.9 nan nan nan 3.6 2.5 2.8 3.0 3.4 3.6 3.7 3.9 4.3 4.5 5.3 5.5 6.3 6.5 6.1
4.0 nan nan nan 2.6 3.0 4.1 4.3 3.2 6.0 5.7 5.2 5.6 4.4 4.1 6.5 8.6 8.6 8.2 6.7 2.5 2.7 3.9 5.0 6.2 7.3 9.0 9.1 7.4 5.6 4.4 3.3 3.2 nan nan nan nan nan 3.0 3.7 3.8 3.9 4.4 4.3 4.0 3.5 3.4 3.8 4.6 6.6 6.7 5.6 6.7 5.7
nan nan nan nan nan 4.2 5.5 5.6 4.1 5.9 6.7 6.5 4.7 5.6 5.4 5.7 5.6 6.7 6.9 3.7 2.8 3.2 5.0 6.5 8.8 15.1 14.9 12.9 6.4 3.7 2.9 2.9 nan 0.0 nan nan nan 4.0 4.1 3.7 nan 3.9 nan 4.3 4.3 nan 4.6 6.9 6.4 6.6 7.3 8.1 8.1 7.9
nan nan nan 3.9 3.1 3.7 4.7 6.2 6.3 6.3 6.1 6.7 5.6 5.3 7.1 4.0 5.2 4.6 4.3 2.9 4.4 5.6 7.3 11.3 13.2 14.3 10.3 3.1 2.4 nan nan nan 12.5 nan 10.0 3.6 nan 3.1 3.7 3.8 4.1 3.3 4.9 7.3 8.0 8.0 7.7 8.3 8.3 5.5 5.3 7.6 7.7 8.0
2.8 nan 3.2 3.3 4.6 5.2 6.3 6.0 6.7 6.7 7.2 6.6 6.5 5.5 6.4 6.3 6.3 6.3 4.2 5.6 6.7 7.0 11.0 11.3 8.5 4.3 3.8 4.3 3.7 3.5 3.3 3.3 4.0 2.5 nan 5.0 5.0 4.8 5.2 4.8 5.9 6.5 6.0 5.6 5.9 6.9 6.9 5.9 7.1 7.3 6.7 6.2 6.5 6.4
nan 3.3 4.2 3.7 6.1 6.4 6.6 6.0 7.8 7.5 7.9 7.2 6.9 7.4 7.0 6.8 7.0 4.7 7.0 6.3 7.1 9.3 8.4 7.3 7.4 5.5 3.8 4.7 5.1 4.2 3.8 4.0 3.9 4.6 4.5 3.4 3.4 4.4 4.6 5.1 4.8 6.6 6.9 6.1 4.7 6.8 7.0 nan 6.0 7.2 6.6 6.5 7.2 7.1
nan 4.8 6.0 6.8 7.0 7.5 7.5 7.8 7.9 8.2 8.0 8.1 7.8 8.4 8.0 7.6 6.5 7.3 8.3 9.1 8.7 8.1 7.5 7.4 4.6 5.5 6.1 7.5 5.9 5.0 4.6 3.7 4.5 4.6 3.8 4.9 6.0 6.2 5.3 6.0 6.8 5.8 6.4 6.4 6.7 6.9 6.7 6.9 nan 6.7 7.3 8.2 7.9 8.0
5.8 6.3 6.7 7.0 7.7 8.5 9.1 9.6 8.4 9.1 8.9 8.9 9.0 8.8 8.4 8.7 8.0 8.0 9.5 9.5 8.9 8.4 6.3 4.9 4.6 4.4 5.3 5.3 4.8 5.1 4.9 4.6 5.5 6.2 4.9 5.1 6.6 6.5 5.9 5.1 4.2 6.3 6.9 6.5 7.7 7.9 7.3 7.2 7.0 7.5 7.7 8.2 8.5 8.8
6.7 7.5 7.2 8.3 8.1 8.9 9.2 9.3 9.6 9.2 9.3 9.3 9.3 9.8 9.2 8.8 8.5 8.3 10.6 9.2 8.4 7.0 6.4 6.2 5.6 6.0 5.9 4.6 5.4 5.3 5.0 4.5 5.8 6.4 5.4 5.4 6.5 6.7 6.3 7.0 6.9 6.4 5.7 7.3 7.4 7.8 8.1 7.7 7.9 8.1 7.9 7.3 nan 7.2
7.4 8.1 8.6 8.1 9.8 11.0 10.1 9.6 9.5 9.2 9.2 9.4 9.4 9.7 8.9 8.7 9.2 11.8 10.5 9.2 10.1 7.7 8.0 6.0 5.1 5.2 5.6 5.6 4.7 5.0 4.9 4.9 6.0 6.3 5.6 5.1 5.1 6.2 6.7 7.6 8.2 6.4 6.7 6.5 6.8 7.4 8.0 8.1 8.0 7.7 7.5 6.6 6.6 7.3
8.9 9.4 9.6 8.8 9.9 10.1 9.9 10.1 9.6 9.3 9.4 10.0 9.7 9.4 9.1 9.7 9.8 9.3 9.6 9.0 9.0 9.0 9.5 9.5 7.9 7.3 7.9 7.7 7.3 7.5 7.9 7.9 8.3 7.4 6.9 6.6 6.8 6.4 6.6 6.4 6.4 nan 6.6 6.8 7.5 7.1 7.0 7.1 7.0 7.0 7.6 7.4 6.9 6.6
9.3 9.1 9.4 9.2 9.8 9.5 9.1 9.1 9.4 10.0 11.9 10.0 9.0 9.6 10.4 11.8 8.8 8.9 8.7 8.5 8.2 9.4 9.5 9.6 9.1 7.6 8.2 8.4 8.4 7.8 8.2 7.8 8.5 9.3 9.8 9.1 8.9 8.5 7.1 6.9 6.9 6.6 6.6 6.7 nan nan 7.2 7.0 6.9 6.7 6.5 6.8 6.1 6.0
9.5 8.8 9.6 9.7 9.4 9.7 9.5 10.5 9.2 9.5 10.3 9.6 10.0 10.7 11.7 10.8 9.0 7.7 9.2 10.0 10.2 9.4 8.8 8.4 8.3 7.9 8.3 8.6 8.8 9.3 8.8 8.0 7.8 8.5 9.1 9.0 8.2 7.6 7.5 8.0 7.5 6.9 6.7 6.9 7.0 6.1 nan 5.6 nan 5.9 7.3 8.4 7.7 8.6
9.5 8.9 10.0 10.2 9.9 9.2 10.0 11.8 10.3 12.1 10.6 9.5 9.7 9.2 9.7 9.5 10.5 10.6 11.6 10.5 10.1 9.0 8.7 8.3 8.2 8.0 8.7 8.9 8.6 8.8 9.1 9.1 8.6 8.6 8.9 9.1 8.8 8.5 8.3 8.1 7.6 7.4 7.1 7.8 8.1 7.6 7.5 8.1 8.2 8.2 9.3 9.3 9.1 9.2
9.4 9.6 9.6 10.5 9.2 8.9 10.0 9.5 9.4 9.5 9.4 9.3 9.2 9.2 9.6 9.6 10.6 10.8 12.2 9.9 9.7 10.1 nan 9.3 9.8 9.7 9.0 9.2 9.3 9.1 nan 9.4 9.2 9.2 9.4 9.3 8.7 8.3 8.5 8.0 7.2 8.3 8.5 8.4 8.8 9.0 9.1 9.0 9.3 8.7 9.6 8.8 8.9 9.6
8.9 9.3 9.2 10.2 8.8 9.3 9.3 8.7 10.4 8.1 9.1 9.4 9.9 9.9 9.6 10.4 11.5 10.9 12.3 10.9 11.0 11.4 10.7 10.0 9.8 9.4 9.9 10.0 10.0 9.9 nan 9.4 9.2 nan nan nan nan nan 7.9 8.9 8.8 9.2 9.5 9.3 9.2 9.3 9.6 9.5 9.3 9.0 9.1 9.0 9.5 9.6